Location: N�rnberg
(49.4471°N, 11.0632°E)
Time: 15:55:26
(UTC+01:00)

ARIANE 6 FM1 Upper Stage - Pass Details

Date: 15 February 2026
Orbit: 523 x 607 km, 62.0° (Epoch: 7 March)

Event Time Altitude Azimuth Distance (km) Brightness Sun altitude
Rises 18:37:05 0° 317° (NW) 2,664 6.7 -10.6°
Reaches altitude 10° 18:39:23 10° 325° (NW) 1,770 5.6 -11.0°
Maximum altitude 18:43:08 39° 35° (NE) 803 3.1 -11.6°
Enters shadow 18:45:40 18° 97° (E) 1,339 4.0 -12.0°
